CW3744 Weather Reports


time (UTC)temp
C
wind
direction
speed
KPH
gust
KPH
rain 1hr
cm
rain 24hr
cm
rain mn
cm
humidity
%
barometer
mb
20260506200107 30 85 4.8 16.1 0.00 0.00 0.00 59 1015.1
20260506200003 30 118 4.8 17.7 0.00 0.00 0.00 59 1015.2
20260506194544 31 128 4.8 14.5 0.00 0.00 0.00 58 1015.3
20260506193006 31 123 3.2 11.3 0.00 0.00 0.00 57 1015.3
20260506191548 32 99 1.6 12.9 0.00 0.00 0.00 56 1015.9
20260506190026 31 336 1.6 8.0 0.00 0.00 0.00 49 1015.9
20260506184506 32 317 11.3 17.7 0.00 0.00 0.00 51 1016.1
20260506183040 32 261 1.6 12.9 0.00 0.00 0.00 47 1016.2
20260506181601 32 146 4.8 12.9 0.00 0.00 0.00 48 1016.4
20260506180016 31 194 0.0 9.7 0.00 0.00 0.00 49 1016.5
20260506174551 31 148 4.8 14.5 0.00 0.00 0.00 50 1016.8
20260506173010 31 279 4.8 11.3 0.00 0.00 0.00 49 1017.0
20260506171544 31 141 4.8 12.9 0.00 0.00 0.00 50 1017.2
20260506170012 31 155 6.4 12.9 0.00 0.00 0.00 51 1017.4
20260506164548 30 99 3.2 12.9 0.00 0.00 0.00 52 1017.5
20260506163022 30 195 6.4 12.9 0.00 0.00 0.00 53 1017.6
20260506161556 30 215 4.8 20.9 0.00 0.00 0.00 54 1017.9
20260506160020 30 202 4.8 12.9 0.00 0.00 0.00 57 1017.9
20260506154550 29 107 3.2 14.5 0.00 0.00 0.00 57 1018.1
20260506153021 28 221 4.8 14.5 0.00 0.00 0.00 58 1017.9
20260506151553 28 182 4.8 12.9 0.00 0.00 0.00 58 1017.8
20260506150014 27 175 4.8 17.7 0.00 0.00 0.00 59 1017.7
20260506144559 27 156 8.0 19.3 0.00 0.00 0.00 60 1017.8
20260506143014 26 132 8.0 17.7 0.00 0.00 0.00 63 1017.8
20260506141546 25 129 9.7 16.1 0.00 0.00 0.00 66 1017.8
20260506140005 25 182 8.0 17.7 0.00 0.00 0.00 69 1017.6
20260506134520 24 161 6.4 14.5 0.00 0.00 0.00 71 1017.7
20260506133056 23 143 4.8 16.1 0.00 0.00 0.00 74 1017.8
20260506131524 22 175 8.0 16.1 0.00 0.00 0.00 76 1017.8
20260506130054 21 175 6.4 16.1 0.00 0.00 0.00 78 1017.6
20260506124514 20 159 3.2 14.5 0.00 0.00 0.00 84 1017.6
20260506123044 19 174 4.8 9.7 0.00 0.00 0.00 88 1017.6
20260506121519 18 164 3.2 8.0 0.00 0.00 0.00 92 1017.5
20260506120048 17 165 3.2 9.7 0.00 0.00 0.00 94 1017.4
20260506114515 17 164 1.6 6.4 0.00 0.00 0.00 94 1017.2
20260506113048 16 174 0.0 6.4 0.00 0.00 0.00 95 1017.2
20260506111530 16 176 0.0 0.0 0.00 0.00 0.00 94 1017.0
20260506110058 16 176 0.0 1.6 0.00 0.00 0.00 94 1016.6
20260506104528 16 177 0.0 3.2 0.00 0.00 0.00 93 1016.5
20260506103043 16 161 0.0 0.0 0.00 0.00 0.00 91 1016.5
20260506101522 16 155 0.0 0.0 0.00 0.00 0.00 90 1016.6
20260506100104 16 155 0.0 0.0 0.00 0.00 0.00 90 1016.6
20260506094513 16 155 0.0 0.0 0.00 0.00 0.00 89 1016.6
20260506093046 17 155 0.0 0.0 0.00 0.00 0.00 87 1016.6
20260506091518 17 155 0.0 0.0 0.00 0.00 0.00 86 1016.3
20260506090034 17 155 0.0 0.0 0.00 0.00 0.00 85 1016.1
20260506084522 18 155 0.0 0.0 0.00 0.00 0.00 83 1016.3
20260506083056 18 155 0.0 0.0 0.00 0.00 0.00 81 1016.5
20260506081516 18 155 1.6 6.4 0.00 0.00 0.00 80 1016.2
20260506080104 18 165 0.0 6.4 0.00 0.00 0.00 79 1016.5
20260506073103 18 165 3.2 8.0 0.00 0.00 0.00 79 1015.8
20260506071517 18 149 3.2 9.7 0.00 0.00 0.00 80 1016.0
20260506061519 17 146 1.6 3.2 0.00 0.00 0.00 88 1016.6
20260506044533 16 146 0.0 0.0 0.00 0.00 0.00 89 1017.2
20260506043059 16 146 0.0 0.0 0.00 0.00 0.00 88 1017.2
20260506041539 16 146 0.0 0.0 0.00 0.00 0.00 87 1017.1
20260506040059 17 146 0.0 0.0 0.00 0.00 0.00 86 1017.1
20260506040005 17 146 0.0 0.0 0.00 0.00 0.00 86 1017.1
20260506034541 17 146 0.0 0.0 0.00 0.00 0.00 85 1017.3
20260506033015 17 146 0.0 0.0 0.00 0.00 0.00 84 1017.3
20260506031547 17 146 0.0 0.0 0.00 0.00 0.00 83 1017.3
20260506030022 17 146 0.0 0.0 0.00 0.00 0.00 81 1017.2
20260506024607 18 146 0.0 0.0 0.00 0.00 0.00 79 1017.2
20260506023013 18 146 0.0 0.0 0.00 0.00 0.00 77 1017.0
20260506021552 19 146 0.0 0.0 0.00 0.00 0.00 75 1016.9
20260506020013 20 145 0.0 3.2 0.00 0.00 0.00 74 1016.8
20260506014549 20 125 0.0 3.2 0.00 0.00 0.00 74 1016.5
20260506013027 20 121 0.0 6.4 0.00 0.00 0.00 74 1016.6
20260506011624 20 121 0.0 1.6 0.00 0.00 0.00 73 1016.7
20260506011509 20 121 0.0 1.6 0.00 0.00 0.00 73 1016.7
20260506010041 20 123 0.0 3.2 0.00 0.00 0.00 71 1016.7
20260506004533 21 119 0.0 3.2 0.00 0.00 0.00 71 1016.6
20260506003049 21 89 0.0 3.2 0.00 0.00 0.00 70 1016.4
20260506001520 21 113 0.0 8.0 0.00 0.00 0.00 69 1016.4
20260506000048 22 180 1.6 8.0 0.00 0.00 0.00 68 1016.2
20260505234519 22 101 1.6 9.7 0.00 0.00 0.00 67 1016.4
20260505233047 22 128 4.8 11.3 0.00 0.00 0.00 66 1016.5
20260505231525 23 190 4.8 14.5 0.00 0.00 0.00 64 1016.2
20260505230100 23 128 3.2 12.9 0.00 0.00 0.00 64 1016.3
20260505224531 24 119 6.4 14.5 0.00 0.00 0.00 59 1016.4
20260505223002 24 119 3.2 14.5 0.00 0.00 0.00 61 1016.1
20260505221535 25 107 3.2 12.9 0.00 0.00 0.00 58 1016.2
20260505220100 25 57 3.2 12.9 0.00 0.00 0.00 58 1016.2
20260505214534 25 70 4.8 16.1 0.00 0.00 0.00 56 1016.2
20260505213056 25 71 6.4 19.3 0.00 0.00 0.00 57 1016.3
20260505213002 25 168 6.4 19.3 0.00 0.00 0.00 56 1016.3
20260505211537 25 157 3.2 14.5 0.00 0.00 0.00 57 1016.5
20260505210011 25 60 3.2 14.5 0.00 0.00 0.00 53 1016.4
20260505204556 25 90 4.8 14.5 0.00 0.00 0.00 54 1016.4
20260505203033 26 129 6.4 16.1 0.00 0.00 0.00 51 1016.7